Location: ???? ???? ?????
(31.2680°N, 31.7283°E)
Time: 04:21:05
(UTC+00:00)

Hubble Space Telescope - Pass Details

Date: 13 July 2020
Orbit: 536 x 540 km, 28.5° (Epoch: 11 August)

Event Time Altitude Azimuth Distance (km) Brightness Sun altitude
Rises 17:41:35 0° 260° (W) 2,667 5.1 -8.8°
Reaches altitude 10° 17:43:52 10° 256° (WSW) 1,778 4.1 -9.2°
Maximum altitude 17:47:54 58° 177° (S) 623 0.9 -9.9°
Enters shadow 17:51:31 13° 100° (E) 1,615 2.6 -10.5°
